TimeCDT,TemperatureF,Dew PointF,Humidity,Sea Level PressureIn,VisibilityMPH,Wind Direction,Wind SpeedMPH,Gust SpeedMPH,PrecipitationIn,Events,Conditions,WindDirDegrees,DateUTC
12:56 AM,77.0,73.0,88,29.89,10.0,Calm,Calm,-,N/A,,Clear,0,2013-09-01 05:56:00
1:56 AM,75.9,73.0,91,29.89,10.0,Calm,Calm,-,N/A,,Clear,0,2013-09-01 06:56:00
2:56 AM,75.9,73.0,91,29.88,10.0,Calm,Calm,-,N/A,,Clear,0,2013-09-01 07:56:00
3:10 AM,75.2,73.4,94,29.90,10.0,West,4.6,-,N/A,,Scattered Clouds,260,2013-09-01 08:10:00
3:31 AM,75.2,73.4,94,29.90,10.0,Calm,Calm,-,N/A,,Mostly Cloudy,0,2013-09-01 08:31:00
3:56 AM,75.0,73.0,94,29.89,10.0,WNW,3.5,-,N/A,,Overcast,290,2013-09-01 08:56:00
4:25 AM,75.2,73.4,94,29.90,10.0,Calm,Calm,-,N/A,,Scattered Clouds,0,2013-09-01 09:25:00
4:56 AM,75.9,72.0,87,29.89,10.0,Calm,Calm,-,N/A,,Partly Cloudy,0,2013-09-01 09:56:00
5:56 AM,73.9,72.0,93,29.89,10.0,Calm,Calm,-,N/A,,Clear,0,2013-09-01 10:56:00
6:56 AM,75.0,72.0,90,29.91,10.0,Calm,Calm,-,N/A,,Clear,0,2013-09-01 11:56:00
7:56 AM,78.1,73.9,87,29.92,10.0,Calm,Calm,-,N/A,,Clear,0,2013-09-01 12:56:00
8:56 AM,82.9,73.9,74,29.93,10.0,Calm,Calm,-,N/A,,Clear,0,2013-09-01 13:56:00
9:56 AM,86.0,73.0,65,29.93,10.0,Calm,Calm,-,N/A,,Clear,0,2013-09-01 14:56:00
10:56 AM,89.1,73.0,59,29.93,10.0,Calm,Calm,-,N/A,,Clear,0,2013-09-01 15:56:00
11:56 AM,91.0,72.0,53,29.93,10.0,Calm,Calm,-,N/A,,Clear,0,2013-09-01 16:56:00
12:56 PM,91.0,71.1,52,29.91,10.0,North,3.5,-,N/A,,Scattered Clouds,360,2013-09-01 17:56:00
1:56 PM,93.0,71.1,49,29.88,10.0,NW,8.1,-,N/A,,Partly Cloudy,320,2013-09-01 18:56:00
2:56 PM,93.9,72.0,49,29.87,10.0,West,4.6,-,N/A,,Mostly Cloudy,260,2013-09-01 19:56:00
3:43 PM,91.4,71.6,52,29.87,10.0,Calm,Calm,-,N/A,Thunderstorm,Thunderstorm,0,2013-09-01 20:43:00
3:56 PM,89.1,72.0,57,29.86,10.0,North,12.7,20.7,N/A,Thunderstorm,Thunderstorm,350,2013-09-01 20:56:00
4:20 PM,84.2,71.6,66,29.86,10.0,North,8.1,-,N/A,,Mostly Cloudy,360,2013-09-01 21:20:00
4:29 PM,86.0,71.6,62,29.87,10.0,North,5.8,-,N/A,Thunderstorm,Partly Cloudy,350,2013-09-01 21:29:00
4:56 PM,84.9,71.1,63,29.86,10.0,Calm,Calm,-,N/A,Thunderstorm,Thunderstorm,0,2013-09-01 21:56:00
5:56 PM,84.0,70.0,63,29.89,10.0,South,3.5,-,N/A,Thunderstorm,Thunderstorm,190,2013-09-01 22:56:00
6:48 PM,80.6,71.6,74,29.90,10.0,Calm,Calm,-,N/A,,Clear,0,2013-09-01 23:48:00
6:56 PM,80.1,72.0,76,29.89,10.0,WSW,4.6,-,N/A,,Clear,250,2013-09-01 23:56:00
7:56 PM,77.0,70.0,79,29.88,10.0,SSE,3.5,-,N/A,,Clear,160,2013-09-02 00:56:00
8:56 PM,75.0,71.1,87,29.91,10.0,Calm,Calm,-,N/A,,Clear,0,2013-09-02 01:56:00
9:56 PM,75.0,70.0,84,29.92,10.0,Calm,Calm,-,N/A,,Clear,0,2013-09-02 02:56:00
10:56 PM,73.9,70.0,87,29.93,10.0,Calm,Calm,-,N/A,,Partly Cloudy,0,2013-09-02 03:56:00
11:56 PM,73.9,70.0,87,29.92,10.0,SE,3.5,-,N/A,,Clear,140,2013-09-02 04:56:00